| time (UTC) | temp F | wind direction | speed MPH | gust MPH | rain 1hr in | rain 24hr in | rain mn in | humidity % | barometer mb |
| 20260906042516 | 55 | 258 | 3.0 | 6.0 | 0.00 | 0.22 | 0.00 | 87 | 1016.6 |
| 20260906041554 | 55 | 225 | 4.0 | 7.0 | 0.00 | 0.22 | 0.00 | 87 | 1016.1 |
| 20260906040502 | 55 | 219 | 4.0 | 6.0 | 0.00 | 0.22 | 0.00 | 87 | 1015.8 |
| 20260906035500 | 55 | 223 | 6.0 | 15.0 | 0.00 | 0.22 | 0.00 | 86 | 1015.7 |
| 20260906034458 | 55 | 217 | 6.0 | 11.0 | 0.00 | 0.22 | 0.00 | 86 | 1015.5 |
| 20260906033516 | 55 | 217 | 6.0 | 14.0 | 0.00 | 0.22 | 0.00 | 86 | 1015.5 |
| 20260906032454 | 55 | 220 | 6.0 | 12.0 | 0.00 | 0.22 | 0.00 | 86 | 1015.4 |
| 20260906031452 | 55 | 221 | 6.0 | 12.0 | 0.00 | 0.22 | 0.00 | 86 | 1015.4 |
| 20260906030450 | 55 | 223 | 6.0 | 8.0 | 0.00 | 0.22 | 0.00 | 86 | 1015.3 |
| 20260906024445 | 56 | 218 | 6.0 | 8.0 | 0.00 | 0.22 | 0.00 | 86 | 1015.2 |
| 20260906023445 | 56 | 226 | 6.0 | 9.0 | 0.00 | 0.22 | 0.00 | 86 | 1015.2 |
| 20260906022442 | 56 | 224 | 7.0 | 9.0 | 0.00 | 0.22 | 0.00 | 86 | 1015.3 |
| 20260906021501 | 56 | 225 | 7.0 | 9.0 | 0.00 | 0.22 | 0.00 | 86 | 1015.3 |
| 20260906020438 | 56 | 227 | 7.0 | 11.0 | 0.00 | 0.22 | 0.00 | 86 | 1015.3 |
| 20260906015436 | 56 | 225 | 7.0 | 9.0 | 0.00 | 0.22 | 0.00 | 86 | 1015.3 |
| 20260906014454 | 57 | 224 | 8.0 | 14.0 | 0.00 | 0.22 | 0.00 | 86 | 1015.3 |
| 20260906013433 | 57 | 230 | 6.0 | 9.0 | 0.00 | 0.22 | 0.00 | 86 | 1015.4 |
| 20260906012429 | 57 | 230 | 6.0 | 11.0 | 0.00 | 0.22 | 0.00 | 86 | 1015.4 |
| 20260906011428 | 57 | 235 | 5.0 | 14.0 | 0.00 | 0.22 | 0.00 | 85 | 1015.4 |
| 20260906010426 | 57 | 227 | 4.0 | 9.0 | 0.00 | 0.22 | 0.00 | 85 | 1015.4 |
| 20260906005423 | 58 | 223 | 5.0 | 16.0 | 0.00 | 0.22 | 0.00 | 85 | 1015.5 |
| 20260906004421 | 58 | 218 | 4.0 | 12.0 | 0.00 | 0.22 | 0.00 | 85 | 1015.5 |
| 20260906003419 | 58 | 238 | 2.0 | 9.0 | 0.00 | 0.22 | 0.00 | 85 | 1015.6 |
| 20260906002417 | 58 | 236 | 3.0 | 11.0 | 0.00 | 0.22 | 0.00 | 85 | 1015.7 |
| 20260906001416 | 58 | 242 | 2.0 | 9.0 | 0.00 | 0.22 | 0.00 | 85 | 1015.7 |
| 20260906000434 | 59 | 249 | 2.0 | 8.0 | 0.00 | 0.22 | 0.00 | 85 | 1015.8 |
| 20260905235411 | 59 | 244 | 2.0 | 7.0 | 0.00 | 0.22 | 0.00 | 85 | 1015.7 |
| 20260905234430 | 59 | 233 | 2.0 | 9.0 | 0.00 | 0.22 | 0.00 | 85 | 1015.8 |
| 20260905233408 | 59 | 235 | 4.0 | 9.0 | 0.00 | 0.22 | 0.00 | 85 | 1015.9 |
| 20260905232406 | 59 | 223 | 3.0 | 7.0 | 0.00 | 0.22 | 0.00 | 85 | 1016.0 |
| 20260905231404 | 59 | 223 | 4.0 | 12.0 | 0.00 | 0.22 | 0.00 | 85 | 1016.0 |
| 20260905230402 | 59 | 223 | 3.0 | 6.0 | 0.00 | 0.22 | 0.00 | 86 | 1016.1 |
| 20260905225400 | 59 | 232 | 4.0 | 7.0 | 0.00 | 0.22 | 0.00 | 86 | 1016.0 |
| 20260905224357 | 59 | 231 | 4.0 | 7.0 | 0.00 | 0.22 | 0.00 | 86 | 1016.0 |
| 20260905223356 | 59 | 223 | 4.0 | 7.0 | 0.00 | 0.22 | 0.00 | 86 | 1016.0 |
| 20260905222354 | 59 | 212 | 6.0 | 12.0 | 0.00 | 0.22 | 0.00 | 86 | 1015.9 |
| 20260905221353 | 59 | 210 | 4.0 | 10.0 | 0.00 | 0.22 | 0.00 | 86 | 1015.9 |
| 20260905220349 | 59 | 214 | 5.0 | 24.0 | 0.00 | 0.22 | 0.00 | 86 | 1015.7 |
| 20260905215407 | 59 | 207 | 5.0 | 13.0 | 0.00 | 0.22 | 0.00 | 86 | 1015.7 |
| 20260905214406 | 59 | 218 | 4.0 | 9.0 | 0.00 | 0.22 | 0.00 | 86 | 1015.7 |
| 20260905213345 | 59 | 218 | 4.0 | 9.0 | 0.00 | 0.22 | 0.00 | 86 | 1015.6 |
| 20260905212342 | 59 | 222 | 4.0 | 20.0 | 0.00 | 0.22 | 0.00 | 86 | 1015.4 |
| 20260905211339 | 59 | 270 | 3.0 | 9.0 | 0.00 | 0.22 | 0.00 | 85 | 1015.4 |
| 20260905210338 | 59 | 262 | 3.0 | 15.0 | 0.00 | 0.22 | 0.00 | 85 | 1015.3 |
| 20260905205356 | 60 | 205 | 4.0 | 11.0 | 0.00 | 0.22 | 0.22 | 85 | 1015.2 |
| 20260905204333 | 60 | 225 | 6.0 | 18.0 | 0.00 | 0.22 | 0.22 | 85 | 1015.1 |
| 20260905203332 | 60 | 230 | 4.0 | 11.0 | 0.00 | 0.22 | 0.22 | 85 | 1015.0 |
| 20260905202329 | 60 | 221 | 3.0 | 6.0 | 0.00 | 0.22 | 0.22 | 85 | 1014.9 |
| 20260905201327 | 60 | 235 | 3.0 | 11.0 | 0.00 | 0.22 | 0.22 | 85 | 1014.9 |
| 20260905200345 | 60 | 231 | 2.0 | 9.0 | 0.00 | 0.22 | 0.22 | 84 | 1015.0 |
| 20260905195324 | 60 | 297 | 2.0 | 8.0 | 0.00 | 0.22 | 0.22 | 84 | 1014.9 |
| 20260905185813 | 60 | 295 | 6.0 | 11.0 | 0.00 | 0.22 | 0.22 | 84 | 1014.9 |
| 20260905184810 | 60 | 295 | 6.0 | 11.0 | 0.00 | 0.22 | 0.22 | 84 | 1015.0 |
| 20260905183808 | 60 | 285 | 6.0 | 12.0 | 0.00 | 0.22 | 0.22 | 84 | 1014.8 |
| 20260905182807 | 60 | 274 | 7.0 | 15.0 | 0.00 | 0.22 | 0.22 | 84 | 1014.7 |
| 20260905181805 | 60 | 270 | 8.0 | 18.0 | 0.05 | 0.22 | 0.22 | 82 | 1014.5 |
| 20260905180837 | 61 | 261 | 9.0 | 14.0 | 0.21 | 0.22 | 0.22 | 82 | 1014.4 |
| 20260905175801 | 61 | 267 | 7.0 | 12.0 | 0.22 | 0.22 | 0.22 | 80 | 1014.3 |
| 20260905174759 | 61 | 261 | 6.0 | 12.0 | 0.22 | 0.22 | 0.22 | 78 | 1014.2 |
| 20260905173756 | 62 | 255 | 7.0 | 15.0 | 0.22 | 0.22 | 0.22 | 77 | 1014.2 |
| 20260905172755 | 64 | 265 | 7.0 | 13.0 | 0.22 | 0.22 | 0.22 | 73 | 1013.5 |
| 20260905171753 | 65 | 295 | 11.0 | 22.0 | 0.18 | 0.18 | 0.18 | 69 | 1013.6 |
| 20260905170751 | 66 | 311 | 6.0 | 13.0 | 0.01 | 0.01 | 0.01 | 67 | 1013.8 |
| 20260905165750 | 67 | 304 | 6.0 | 17.0 | 0.00 | 0.00 | 0.00 | 63 | 1014.1 |
| 20260905164747 | 68 | 306 | 7.0 | 21.0 | 0.00 | 0.00 | 0.00 | 60 | 1014.1 |
| 20260905163744 | 68 | 311 | 5.0 | 16.0 | 0.00 | 0.00 | 0.00 | 57 | 1013.1 |
| 20260905162742 | 69 | 303 | 4.0 | 8.0 | 0.00 | 0.00 | 0.00 | 57 | 1013.2 |
| 20260905161800 | 69 | 312 | 6.0 | 13.0 | 0.00 | 0.00 | 0.00 | 56 | 1012.8 |
| 20260905160758 | 69 | 309 | 6.0 | 13.0 | 0.00 | 0.00 | 0.00 | 55 | 1012.9 |
| 20260905155757 | 69 | 307 | 7.0 | 15.0 | 0.00 | 0.00 | 0.00 | 54 | 1012.7 |
| 20260905154734 | 71 | 311 | 7.0 | 24.0 | 0.00 | 0.00 | 0.00 | 52 | 1012.8 |
| 20260905153753 | 71 | 309 | 9.0 | 19.0 | 0.00 | 0.00 | 0.00 | 52 | 1012.9 |
| 20260905152751 | 72 | 313 | 7.0 | 17.0 | 0.00 | 0.00 | 0.00 | 52 | 1012.6 |
| 20260905151748 | 73 | 310 | 7.0 | 14.0 | 0.00 | 0.00 | 0.00 | 51 | 1012.4 |
| 20260905150727 | 74 | 310 | 8.0 | 22.0 | 0.00 | 0.00 | 0.00 | 50 | 1012.3 |
| 20260905145745 | 75 | 317 | 7.0 | 15.0 | 0.00 | 0.00 | 0.00 | 51 | 1012.0 |
| 20260905144723 | 76 | 312 | 8.0 | 20.0 | 0.00 | 0.00 | 0.00 | 50 | 1011.8 |
| 20260905143741 | 78 | 320 | 8.0 | 17.0 | 0.00 | 0.00 | 0.00 | 48 | 1011.7 |
| 20260905142719 | 80 | 311 | 8.0 | 14.0 | 0.00 | 0.00 | 0.00 | 46 | 1011.8 |
| 20260905141717 | 84 | 312 | 8.0 | 16.0 | 0.00 | 0.00 | 0.00 | 43 | 1011.4 |
| 20260905140715 | 86 | 319 | 7.0 | 13.0 | 0.00 | 0.00 | 0.00 | 44 | 1010.9 |
| 20260905135712 | 88 | 303 | 7.0 | 16.0 | 0.00 | 0.00 | 0.00 | 42 | 1010.7 |
| 20260905134730 | 89 | 293 | 5.0 | 16.0 | 0.00 | 0.00 | 0.00 | 41 | 1010.6 |
| 20260905133708 | 89 | 270 | 3.0 | 7.0 | 0.00 | 0.00 | 0.00 | 41 | 1010.2 |
| 20260905132706 | 90 | 270 | 2.0 | 7.0 | 0.00 | 0.00 | 0.00 | 40 | 1010.1 |
| 20260905131724 | 90 | 251 | 1.0 | 18.0 | 0.00 | 0.00 | 0.00 | 41 | 1010.0 |
| 20260905130703 | 89 | 317 | 1.0 | 4.0 | 0.00 | 0.00 | 0.00 | 42 | 1010.1 |
| 20260905125721 | 89 | 253 | 2.0 | 6.0 | 0.00 | 0.00 | 0.00 | 39 | 1010.2 |
| 20260905124658 | 90 | 251 | 3.0 | 6.0 | 0.00 | 0.00 | 0.00 | 39 | 1010.3 |
| 20260905123656 | 90 | 270 | 1.0 | 4.0 | 0.00 | 0.00 | 0.00 | 40 | 1010.3 |
| 20260905122655 | 90 | 270 | 2.0 | 17.0 | 0.00 | 0.00 | 0.00 | 39 | 1010.4 |
| 20260905121712 | 90 | 235 | 4.0 | 8.0 | 0.00 | 0.00 | 0.00 | 39 | 1010.4 |
| 20260905120650 | 89 | 270 | 1.0 | 2.0 | 0.00 | 0.00 | 0.00 | 42 | 1010.6 |
| 20260905115728 | 88 | 257 | 2.0 | 7.0 | 0.00 | 0.00 | 0.00 | 43 | 1010.6 |
| 20260905114707 | 87 | 270 | 2.0 | 12.0 | 0.00 | 0.00 | 0.00 | 43 | 1010.7 |
| 20260905113645 | 86 | 223 | 2.0 | 17.0 | 0.00 | 0.00 | 0.00 | 44 | 1010.9 |
| 20260905112643 | 86 | 257 | 2.0 | 5.0 | 0.00 | 0.00 | 0.00 | 43 | 1010.9 |
| 20260905111640 | 85 | 235 | 2.0 | 9.0 | 0.00 | 0.00 | 0.00 | 44 | 1010.8 |
| 20260905110640 | 85 | 243 | 2.0 | 6.0 | 0.00 | 0.00 | 0.00 | 43 | 1010.8 |
| 20260905105639 | 86 | 229 | 3.0 | 8.0 | 0.00 | 0.00 | 0.00 | 43 | 1010.7 |
| 20260905104635 | 86 | 253 | 2.0 | 16.0 | 0.00 | 0.00 | 0.00 | 43 | 1010.9 |
| 20260905103632 | 86 | 253 | 2.0 | 6.0 | 0.00 | 0.00 | 0.00 | 44 | 1011.0 |
| 20260905102630 | 85 | 254 | 2.0 | 6.0 | 0.00 | 0.00 | 0.00 | 43 | 1011.1 |
| 20260905101628 | 86 | 236 | 4.0 | 9.0 | 0.00 | 0.00 | 0.00 | 42 | 1011.1 |
| 20260905100627 | 86 | 244 | 3.0 | 6.0 | 0.00 | 0.00 | 0.00 | 42 | 1011.1 |
| 20260905095644 | 86 | 247 | 3.0 | 8.0 | 0.00 | 0.00 | 0.00 | 43 | 1011.2 |
| 20260905094622 | 85 | 251 | 2.0 | 7.0 | 0.00 | 0.00 | 0.00 | 44 | 1011.3 |
| 20260905093620 | 84 | 234 | 3.0 | 7.0 | 0.00 | 0.00 | 0.00 | 45 | 1011.1 |
| 20260905092627 | 84 | 222 | 4.0 | 21.0 | 0.00 | 0.00 | 0.00 | 45 | 1011.3 |
| 20260905085222 | 83 | 251 | 3.0 | 10.0 | 0.00 | 0.00 | 0.00 | 46 | 1011.5 |
| 20260905084221 | 82 | 243 | 2.0 | 6.0 | 0.00 | 0.00 | 0.00 | 47 | 1011.6 |
| 20260905083219 | 82 | 243 | 2.0 | 7.0 | 0.00 | 0.00 | 0.00 | 48 | 1011.7 |
| 20260905082217 | 81 | 223 | 3.0 | 9.0 | 0.00 | 0.00 | 0.00 | 49 | 1011.8 |
| 20260905081214 | 80 | 240 | 2.0 | 8.0 | 0.00 | 0.00 | 0.00 | 50 | 1011.9 |
| 20260905080212 | 80 | 239 | 2.0 | 7.0 | 0.00 | 0.00 | 0.00 | 50 | 1012.1 |
| 20260905075211 | 79 | 228 | 4.0 | 9.0 | 0.00 | 0.00 | 0.00 | 50 | 1012.1 |
| 20260905074209 | 79 | 234 | 3.0 | 9.0 | 0.00 | 0.00 | 0.00 | 51 | 1012.2 |
| 20260905073207 | 78 | 225 | 4.0 | 10.0 | 0.00 | 0.00 | 0.00 | 53 | 1012.2 |
| 20260905072204 | 77 | 234 | 2.0 | 6.0 | 0.00 | 0.00 | 0.00 | 54 | 1012.1 |
| 20260905071202 | 76 | 236 | 2.0 | 6.0 | 0.00 | 0.00 | 0.00 | 55 | 1012.1 |
| 20260905070201 | 75 | 226 | 3.0 | 16.0 | 0.00 | 0.00 | 0.00 | 57 | 1012.3 |
| 20260905065219 | 74 | 236 | 2.0 | 6.0 | 0.00 | 0.00 | 0.00 | 59 | 1012.5 |
| 20260905064208 | 73 | 243 | 2.0 | 6.0 | 0.00 | 0.00 | 0.00 | 61 | 1012.3 |
| 20260905063215 | 71 | 244 | 2.0 | 7.0 | 0.00 | 0.00 | 0.00 | 63 | 1012.3 |
| 20260905062152 | 69 | 242 | 2.0 | 6.0 | 0.00 | 0.00 | 0.00 | 66 | 1012.3 |
| 20260905061151 | 67 | 228 | 2.0 | 17.0 | 0.00 | 0.00 | 0.00 | 68 | 1012.3 |
| 20260905060208 | 65 | 237 | 2.0 | 8.0 | 0.00 | 0.00 | 0.00 | 69 | 1012.3 |
| 20260905055147 | 64 | 234 | 2.0 | 6.0 | 0.00 | 0.00 | 0.00 | 70 | 1012.3 |
| 20260905054145 | 64 | 228 | 2.0 | 18.0 | 0.00 | 0.00 | 0.00 | 70 | 1012.4 |
| 20260905053142 | 63 | 220 | 1.0 | 2.0 | 0.00 | 0.00 | 0.00 | 70 | 1012.3 |
| 20260905052140 | 63 | 228 | 1.0 | 10.0 | 0.00 | 0.00 | 0.00 | 70 | 1012.3 |
| 20260905051138 | 62 | 239 | 2.0 | 6.0 | 0.00 | 0.00 | 0.00 | 71 | 1012.2 |
| 20260905050136 | 62 | 243 | 1.0 | 4.0 | 0.00 | 0.00 | 0.00 | 71 | 1012.3 |
| 20260905045134 | 61 | 239 | 2.0 | 13.0 | 0.00 | 0.00 | 0.00 | 71 | 1012.2 |
| 20260905044133 | 61 | 249 | 2.0 | 9.0 | 0.00 | 0.00 | 0.00 | 71 | 1012.3 |